FW0202 Weather Reports


Display with metric or nautical units.
time (UTC)temp
F
wind
direction
speed
MPH
gust
MPH
rain 1hr
in
rain 24hr
in
rain mn
in
humidity
%
barometer
mb
20260509224227 68 189 4.0 5.0 0.00 0.00 0.00 74 1006.8
20260509224201 66 169 4.0 6.0 0.00 0.00 0.00 76 1006.7
20260509223157 65 166 4.0 6.0 0.00 0.00 0.00 78 1006.7
20260509222658 65 169 4.0 6.0 0.00 0.00 0.00 79 1006.8
20260509222157 64 173 5.0 6.0 0.00 0.00 0.00 85 1006.7
20260509221655 62 180 5.0 6.0 0.00 0.00 0.00 92 1006.6
20260509221635 61 191 5.0 6.0 0.00 0.00 0.00 96 1006.5
20260509220647 60 179 5.0 6.0 0.00 0.00 0.00 97 1006.5
20260509220142 58 180 4.0 6.0 0.00 0.00 0.00 97 1006.7
20260509215628 58 175 5.0 6.0 0.00 0.00 0.00 97 1006.6
20260509215123 58 183 4.0 5.0 0.00 0.00 0.00 97 1006.4
20260509214621 58 171 5.0 5.0 0.00 0.00 0.00 98 1006.5
20260509214336 58 178 5.0 5.0 0.00 0.00 0.00 98 1006.5
20260509213611 58 178 4.0 5.0 0.00 0.00 0.00 98 1006.5
20260509213108 58 178 4.0 5.0 0.00 0.00 0.00 98 1006.2
20260509212603 57 177 5.0 6.0 0.00 0.00 0.00 98 1006.2
20260509212318 57 172 5.0 6.0 0.00 0.00 0.00 98 1006.2
20260509211545 57 178 4.0 5.0 0.00 0.00 0.00 98 1006.1
20260509211041 56 181 4.0 6.0 0.00 0.00 0.00 98 1006.2
20260509210517 56 169 5.0 6.0 0.00 0.00 0.00 98 1006.0
20260509210237 56 174 5.0 6.0 0.00 0.00 0.00 98 1005.7
20260509205509 56 172 5.0 6.0 0.00 0.00 0.00 98 1005.7
20260509204945 56 172 4.0 6.0 0.00 0.00 0.00 98 1005.8
20260509204440 56 173 4.0 6.0 0.00 0.00 0.00 98 1005.7
20260509203916 55 181 4.0 6.0 0.00 0.00 0.00 98 1005.7
20260509203412 55 177 4.0 6.0 0.00 0.00 0.00 98 1005.4
20260509202907 55 179 4.0 6.0 0.00 0.00 0.00 98 1005.4
20260509202353 55 180 5.0 6.0 0.00 0.00 0.00 98 1005.5
20260509202113 55 179 4.0 6.0 0.00 0.00 0.00 98 1005.4
20260509201345 55 169 5.0 6.0 0.00 0.00 0.00 98 1005.3
20260509200840 55 180 5.0 6.0 0.00 0.00 0.00 98 1005.3
20260509200337 54 184 5.0 6.0 0.00 0.00 0.00 98 1005.3
20260509200051 55 187 4.0 6.0 0.00 0.00 0.00 98 1005.1
20260509195325 55 180 4.0 6.0 0.00 0.00 0.00 98 1005.3
20260509194814 55 183 4.0 6.0 0.00 0.00 0.00 98 1005.1
20260509194311 54 173 5.0 6.0 0.00 0.00 0.00 98 1005.2
20260509193756 55 178 4.0 6.0 0.00 0.00 0.00 98 1005.1
20260509193251 55 173 5.0 6.0 0.00 0.00 0.00 98 1005.0
20260509192752 55 171 4.0 5.0 0.00 0.00 0.00 98 1005.1
20260509192252 56 170 5.0 5.0 0.00 0.00 0.00 98 1005.0
20260509191749 56 170 5.0 5.0 0.00 0.00 0.00 98 1004.9
20260509191245 56 177 5.0 5.0 0.00 0.00 0.00 98 1004.9
20260509190741 55 183 3.0 5.0 0.00 0.00 0.00 98 1004.8
20260509190238 55 180 4.0 5.0 0.00 0.00 0.00 98 1004.8
20260509185938 55 177 4.0 5.0 0.00 0.00 0.00 98 1004.7
20260509185357 55 177 4.0 5.0 0.00 0.00 0.00 98 1004.8
20260509184201 54 173 5.0 6.0 0.00 0.00 0.00 98 1004.6
20260509183658 54 185 4.0 6.0 0.00 0.00 0.00 98 1004.5
20260509183153 54 196 5.0 6.0 0.00 0.00 0.00 98 1004.5
20260509182650 54 190 5.0 6.0 0.00 0.00 0.00 98 1004.5
20260509182152 55 188 5.0 6.0 0.00 0.00 0.00 98 1004.5
20260509181640 55 172 4.0 6.0 0.00 0.00 0.00 98 1004.4
20260509181136 54 172 5.0 6.0 0.00 0.00 0.00 98 1004.5
20260509180621 54 173 5.0 6.0 0.00 0.00 0.00 98 1004.3
20260509180119 54 182 5.0 6.0 0.00 0.00 0.00 98 1004.4
20260509175620 54 186 5.0 6.0 0.00 0.00 0.00 98 1004.4
20260509175120 54 177 4.0 6.0 0.00 0.00 0.00 98 1004.4
20260509174814 54 179 5.0 6.0 0.00 0.00 0.00 98 1004.4
20260509173607 53 174 5.0 6.0 0.00 0.00 0.00 98 1004.2
20260509173103 53 170 5.0 6.0 0.00 0.00 0.00 97 1004.0
20260509172549 53 170 5.0 6.0 0.00 0.00 0.00 97 1004.1
20260509172307 53 176 4.0 6.0 0.00 0.00 0.00 97 1004.2
20260509171542 54 176 4.0 6.0 0.00 0.00 0.00 97 1004.1
20260509171036 54 174 4.0 6.0 0.00 0.00 0.00 97 1004.0
20260509170522 54 171 5.0 6.0 0.00 0.00 0.00 97 1004.1
20260509170019 54 168 5.0 6.0 0.00 0.00 0.00 98 1004.0
20260509165730 54 173 5.0 6.0 0.00 0.00 0.00 97 1004.2
20260509165011 53 166 5.0 6.0 0.00 0.00 0.00 97 1003.8
20260509164506 53 176 5.0 6.0 0.00 0.00 0.00 97 1004.1
20260509164205 53 180 4.0 6.0 0.00 0.00 0.00 97 1003.9
20260509163449 53 180 5.0 6.0 0.00 0.00 0.00 97 1004.0
20260509162914 53 171 5.0 6.0 0.00 0.00 0.00 97 1004.1
20260509162409 53 175 5.0 6.0 0.00 0.00 0.00 97 1004.1
20260509161855 53 179 4.0 6.0 0.00 0.00 0.00 97 1004.2
20260509161612 53 171 4.0 6.0 0.00 0.00 0.00 97 1004.2
20260509160826 54 187 5.0 6.0 0.00 0.00 0.00 97 1004.1
20260509160323 54 176 5.0 6.0 0.00 0.00 0.00 97 1004.1
20260509155818 54 169 4.0 6.0 0.00 0.00 0.00 97 1003.9
20260509155315 53 168 5.0 6.0 0.00 0.00 0.00 97 1004.0
20260509154811 54 171 5.0 6.0 0.00 0.00 0.00 97 1004.2
20260509154306 54 166 5.0 6.0 0.00 0.00 0.00 97 1004.2
20260509153802 54 172 5.0 6.0 0.00 0.00 0.00 97 1004.2
20260509153258 53 170 5.0 6.0 0.00 0.00 0.00 97 1004.2
20260509152754 53 174 4.0 6.0 0.00 0.00 0.00 97 1004.2
20260509152246 53 180 5.0 6.0 0.00 0.00 0.00 97 1004.3
20260509151745 53 178 5.0 6.0 0.00 0.00 0.00 96 1004.4
20260509151241 53 185 5.0 6.0 0.00 0.00 0.00 96 1004.4
20260509150716 53 192 5.0 6.0 0.00 0.00 0.00 96 1004.6
20260509150215 53 169 6.0 6.0 0.00 0.00 0.00 96 1004.4
20260509150204 53 176 5.0 6.0 0.00 0.00 0.00 96 1004.5
20260509145215 53 180 5.0 6.0 0.00 0.00 0.00 96 1004.4
20260509144711 53 185 5.0 6.0 0.00 0.00 0.00 96 1004.6
20260509144206 53 188 4.0 6.0 0.00 0.00 0.00 96 1004.5
20260509143653 53 187 5.0 6.0 0.00 0.00 0.00 96 1004.6
20260509143414 53 180 5.0 6.0 0.00 0.00 0.00 96 1004.6
20260509142901 53 186 4.0 6.0 0.00 0.00 0.00 96 1004.6
20260509142357 54 180 5.0 6.0 0.00 0.00 0.00 96 1004.9
20260509141635 54 181 4.0 5.0 0.00 0.00 0.00 96 1004.7
20260509141113 53 180 5.0 5.0 0.00 0.00 0.00 96 1004.6
20260509140831 53 179 3.0 3.0 0.00 0.00 0.00 96 1004.6
20260509140108 54 76 0.0 2.0 0.00 0.00 0.00 96 1004.7
20260509135558 54 106 0.0 2.0 0.00 0.00 0.00 96 1004.9
20260509135055 54 124 0.0 2.0 0.00 0.00 0.00 96 1005.0
20260509134551 54 119 0.0 2.0 0.00 0.00 0.00 96 1004.9
20260509134047 53 131 0.0 2.0 0.00 0.00 0.00 96 1004.9
20260509133511 53 132 0.0 6.0 0.00 0.00 0.00 96 1004.8
20260509133007 53 76 0.0 6.0 0.00 0.00 0.00 96 1004.9
20260509132453 53 175 5.0 6.0 0.00 0.00 0.00 96 1004.8
20260509131949 53 178 5.0 6.0 0.00 0.00 0.00 96 1004.8
20260509131445 53 176 5.0 6.0 0.00 0.00 0.00 96 1004.7
20260509130942 54 180 5.0 6.0 0.00 0.00 0.00 96 1004.6
20260509130455 53 180 5.0 6.0 0.00 0.00 0.00 96 1004.6
20260509125942 53 175 5.0 6.0 0.00 0.00 0.00 96 1004.6
20260509125418 53 172 6.0 6.0 0.00 0.00 0.00 96 1004.7
20260509124911 54 174 5.0 6.0 0.00 0.00 0.00 96 1004.6
20260509124359 54 171 6.0 6.0 0.00 0.00 0.00 96 1004.5
20260509123855 54 167 5.0 6.0 0.00 0.00 0.00 95 1004.6
20260509123340 53 173 6.0 6.0 0.00 0.00 0.00 95 1004.6
20260509122837 54 179 5.0 6.0 0.00 0.00 0.00 95 1004.6
20260509122333 54 187 5.0 7.0 0.00 0.00 0.00 95 1004.8
20260509121819 54 180 5.0 7.0 0.00 0.00 0.00 95 1004.7
20260509121310 54 190 5.0 7.0 0.00 0.00 0.00 95 1004.7
20260509120809 54 194 5.0 6.0 0.00 0.00 0.00 95 1004.5
20260509120531 54 193 6.0 6.0 0.00 0.00 0.00 94 1004.7
20260509120224 54 192 6.0 6.0 0.00 0.00 0.00 94 1004.7
20260509115229 54 183 6.0 7.0 0.00 0.00 0.00 94 1004.6
20260509114713 54 182 5.0 7.0 0.00 0.00 0.00 94 1004.7
20260509114209 54 188 6.0 6.0 0.00 0.00 0.00 94 1004.5
20260509113937 54 176 6.0 6.0 0.00 0.00 0.00 94 1004.5
20260509113210 55 188 5.0 6.0 0.00 0.00 0.00 94 1004.5
20260509112710 55 181 5.0 6.0 0.00 0.00 0.00 94 1004.5
20260509112210 55 181 6.0 6.0 0.00 0.00 0.00 94 1004.7
20260509111709 55 190 6.0 7.0 0.00 0.00 0.00 94 1004.9
20260509111155 55 187 5.0 7.0 0.00 0.00 0.00 93 1004.8
20260509110651 55 187 5.0 7.0 0.00 0.00 0.00 93 1004.7
20260509110147 55 190 6.0 7.0 0.00 0.00 0.00 93 1004.9
20260509105633 55 192 6.0 7.0 0.00 0.00 0.00 92 1004.7
20260509105118 55 197 6.0 6.0 0.00 0.00 0.00 92 1004.7
20260509104833 55 191 6.0 6.0 0.00 0.00 0.00 92 1004.8
20260509104109 55 180 5.0 6.0 0.00 0.00 0.00 92 1004.6
20260509103825 55 179 5.0 6.0 0.00 0.00 0.00 92 1004.8
20260509103051 55 168 5.0 6.0 0.00 0.00 0.00 92 1004.7
20260509102813 55 170 5.0 6.0 0.00 0.00 0.00 92 1004.7
20260509102531 55 169 5.0 6.0 0.00 0.00 0.00 91 1004.6
20260509101540 55 165 5.0 6.0 0.00 0.00 0.00 92 1004.4
20260509101036 55 174 5.0 6.0 0.00 0.00 0.00 91 1004.3
20260509100510 55 182 6.0 6.0 0.00 0.00 0.00 91 1004.4
20260509100228 55 194 5.0 6.0 0.00 0.00 0.00 91 1004.3
20260509095504 55 177 4.0 6.0 0.00 0.00 0.00 90 1004.4
20260509094959 56 178 5.0 6.0 0.00 0.00 0.00 90 1004.2
20260509094706 56 184 5.0 6.0 0.00 0.00 0.00 90 1004.2
20260509094203 56 183 5.0 7.0 0.00 0.00 0.00 90 1004.4
20260509093437 56 190 6.0 7.0 0.00 0.00 0.00 89 1004.5
20260509092935 56 179 4.0 8.0 0.00 0.00 0.00 88 1004.3
20260509092436 57 201 6.0 8.0 0.00 0.00 0.00 88 1004.2
20260509092410 57 198 5.0 7.0 0.00 0.00 0.00 87 1004.2
20260509091419 58 178 4.0 6.0 0.00 0.00 0.00 86 1004.2
20260509090915 58 180 4.0 6.0 0.00 0.00 0.00 85 1004.1
20260509090411 58 185 5.0 6.0 0.00 0.00 0.00 85 1004.1
20260509085906 58 187 5.0 6.0 0.00 0.00 0.00 84 1004.0
20260509085403 58 178 4.0 6.0 0.00 0.00 0.00 83 1004.1
20260509084858 58 179 4.0 6.0 0.00 0.00 0.00 83 1004.0
20260509084354 59 172 5.0 6.0 0.00 0.00 0.00 82 1003.9
20260509083849 59 179 4.0 6.0 0.00 0.00 0.00 82 1004.0
20260509083345 59 182 5.0 6.0 0.00 0.00 0.00 82 1003.9
20260509082831 59 178 5.0 6.0 0.00 0.00 0.00 81 1003.8
20260509082327 60 183 5.0 6.0 0.00 0.00 0.00 80 1003.8
20260509081812 60 171 5.0 6.0 0.00 0.00 0.00 79 1003.6
20260509081304 60 178 5.0 6.0 0.00 0.00 0.00 79 1003.6
20260509080804 61 174 5.0 6.0 0.00 0.00 0.00 78 1003.6
20260509080318 61 174 5.0 7.0 0.00 0.00 0.00 78 1003.6
20260509075804 61 176 5.0 7.0 0.00 0.00 0.00 79 1003.4
20260509075515 61 167 5.0 7.0 0.00 0.00 0.00 78 1003.4
20260509074733 62 174 5.0 6.0 0.00 0.00 0.00 78 1003.3
20260509074452 62 172 4.0 6.0 0.00 0.00 0.00 77 1003.1
20260509073733 63 169 4.0 6.0 0.00 0.00 0.00 77 1003.1
20260509073214 63 176 5.0 6.0 0.00 0.00 0.00 76 1003.0
20260509072649 64 163 4.0 6.0 0.00 0.00 0.00 75 1003.0
20260509072148 64 161 5.0 6.0 0.00 0.00 0.00 74 1002.9
20260509071859 64 165 5.0 6.0 0.00 0.00 0.00 73 1002.9
20260509071352 64 162 5.0 6.0 0.00 0.00 0.00 71 1002.9
20260509070613 64 167 6.0 6.0 0.00 0.00 0.00 67 1002.8
20260509070552 64 177 5.0 5.0 0.00 0.00 0.00 64 1002.8
20260509065545 65 179 5.0 5.0 0.00 0.00 0.00 63 1002.7
20260509065039 65 178 4.0 6.0 0.00 0.00 0.00 63 1002.5
20260509064535 66 180 5.0 6.0 0.00 0.00 0.00 61 1002.6
20260509064032 66 168 4.0 6.0 0.00 0.00 0.00 60 1002.4
20260509063749 66 169 4.0 6.0 0.00 0.00 0.00 58 1002.4
20260509063013 67 166 4.0 6.0 0.00 0.00 0.00 60 1002.5
20260509062509 67 171 4.0 6.0 0.00 0.00 0.00 58 1002.4
20260509062005 67 64 1.0 6.0 0.00 0.00 0.00 56 1002.4
20260509061500 67 166 5.0 6.0 0.00 0.00 0.00 58 1002.3
20260509061001 67 169 5.0 6.0 0.00 0.00 0.00 59 1002.5
20260509060501 68 176 5.0 6.0 0.00 0.00 0.00 58 1002.3
20260509060222 68 167 4.0 6.0 0.00 0.00 0.00 58 1002.4
20260509055444 68 172 5.0 6.0 0.00 0.00 0.00 57 1002.1
20260509054939 68 172 4.0 6.0 0.00 0.00 0.00 56 1002.2
20260509054703 69 176 4.0 6.0 0.00 0.00 0.00 56 1002.4
20260509053933 69 174 4.0 6.0 0.00 0.00 0.00 55 1002.2
20260509053418 69 170 5.0 6.0 0.00 0.00 0.00 56 1002.3
20260509052914 69 171 5.0 6.0 0.00 0.00 0.00 55 1002.0
20260509052408 70 173 4.0 6.0 0.00 0.00 0.00 54 1002.1
20260509051904 70 175 4.0 6.0 0.00 0.00 0.00 54 1002.1
20260509051412 70 171 4.0 6.0 0.00 0.00 0.00 57 1002.1
20260509050858 70 178 4.0 6.0 0.00 0.00 0.00 54 1002.1
20260509050359 70 165 5.0 6.0 0.00 0.00 0.00 53 1002.1
20260509045859 70 166 5.0 6.0 0.00 0.00 0.00 51 1002.0
20260509045353 71 171 5.0 6.0 0.00 0.00 0.00 53 1001.9
20260509044850 71 180 4.0 7.0 0.00 0.00 0.00 54 1001.9
20260509044335 71 166 4.0 7.0 0.00 0.00 0.00 53 1002.1
20260509043831 72 199 5.0 6.0 0.00 0.00 0.00 51 1002.1
20260509043328 73 180 4.0 6.0 0.00 0.00 0.00 52 1002.1
20260509042823 72 180 4.0 6.0 0.00 0.00 0.00 52 1002.1
20260509042318 72 164 4.0 6.0 0.00 0.00 0.00 53 1002.1
20260509041815 72 179 4.0 6.0 0.00 0.00 0.00 52 1002.2
20260509041310 73 176 4.0 6.0 0.00 0.00 0.00 51 1002.2
20260509040805 72 174 5.0 6.0 0.00 0.00 0.00 52 1002.2
20260509040302 72 163 4.0 8.0 0.00 0.00 0.00 51 1002.1
20260509035756 73 187 4.0 8.0 0.00 0.00 0.00 52 1002.2
20260509035503 71 170 4.0 6.0 0.00 0.00 0.00 51 1002.3
20260509034739 71 158 5.0 6.0 0.00 0.00 0.00 54 1002.1
20260509034225 71 164 4.0 6.0 0.00 0.00 0.00 52 1002.3
20260509033710 72 159 5.0 6.0 0.00 0.00 0.00 50 1002.2
20260509033207 74 169 4.0 6.0 0.00 0.00 0.00 50 1002.3
20260509032652 73 189 4.0 6.0 0.00 0.00 0.00 53 1002.2
20260509032409 72 210 5.0 6.0 0.00 0.00 0.00 51 1002.4
20260509031644 72 175 4.0 6.0 0.00 0.00 0.00 52 1002.1
20260509031623 72 162 5.0 6.0 0.00 0.00 0.00 50 1002.3
20260509030614 72 179 3.0 6.0 0.00 0.00 0.00 52 1002.3
20260509030111 72 173 4.0 6.0 0.00 0.00 0.00 52 1002.1
20260509025606 71 162 4.0 6.0 0.00 0.00 0.00 51 1002.2
20260509025101 72 174 5.0 6.0 0.00 0.00 0.00 50 1002.3
20260509024557 72 182 2.0 6.0 0.00 0.00 0.00 50 1002.6
20260509024058 72 192 5.0 7.0 0.00 0.00 0.00 51 1002.4
20260509023814 72 167 4.0 7.0 0.00 0.00 0.00 49 1002.6
20260509023045 73 214 5.0 7.0 0.00 0.00 0.00 47 1002.7
20260509022524 72 170 4.0 7.0 0.00 0.00 0.00 51 1002.7
20260509022024 74 200 6.0 6.0 0.00 0.00 0.00 47 1002.8
20260509021755 71 167 3.0 6.0 0.00 0.00 0.00 50 1002.7
20260509021240 71 162 4.0 6.0 0.00 0.00 0.00 52 1003.0
20260509020527 72 158 5.0 8.0 0.00 0.00 0.00 52 1003.0
20260509020010 73 179 4.0 8.0 0.00 0.00 0.00 48 1003.1
20260509015506 72 176 4.0 7.0 0.00 0.00 0.00 50 1003.2
20260509015002 73 164 5.0 7.0 0.00 0.00 0.00 49 1003.1
20260509014447 72 161 4.0 6.0 0.00 0.00 0.00 52 1003.2
20260509013933 73 180 4.0 6.0 0.00 0.00 0.00 52 1003.2
20260509013430 71 189 4.0 6.0 0.00 0.00 0.00 49 1003.5
20260509012925 71 151 6.0 6.0 0.00 0.00 0.00 52 1003.4
20260509012420 73 180 3.0 6.0 0.00 0.00 0.00 51 1003.5
20260509011917 72 193 5.0 6.0 0.00 0.00 0.00 51 1003.4
20260509011413 70 165 5.0 6.0 0.00 0.00 0.00 53 1003.7
20260509010909 70 165 5.0 6.0 0.00 0.00 0.00 54 1003.5
20260509010405 71 168 4.0 6.0 0.00 0.00 0.00 53 1003.7
20260509005901 69 215 5.0 7.0 0.00 0.00 0.00 55 1003.6
20260509005346 70 173 4.0 7.0 0.00 0.00 0.00 52 1003.9
20260509005107 70 171 5.0 6.0 0.00 0.00 0.00 54 1003.7
20260509004338 70 175 3.0 6.0 0.00 0.00 0.00 55 1003.8
20260509003821 69 167 5.0 6.0 0.00 0.00 0.00 54 1003.9
20260509003322 69 166 4.0 6.0 0.00 0.00 0.00 53 1004.0
20260509003041 70 166 5.0 7.0 0.00 0.00 0.00 52 1003.8
20260509002321 69 182 5.0 7.0 0.00 0.00 0.00 53 1003.9
20260509001817 68 180 5.0 7.0 0.00 0.00 0.00 52 1003.9
20260509001313 69 161 4.0 7.0 0.00 0.00 0.00 51 1004.0
20260509000810 68 170 4.0 6.0 0.00 0.00 0.00 52 1003.9
20260509000307 67 175 3.0 6.0 0.00 0.00 0.00 54 1003.8
20260508235750 68 157 4.0 6.0 0.00 0.00 0.00 53 1003.8
20260508235247 67 164 6.0 6.0 0.00 0.00 0.00 52 1004.0
20260508234721 66 164 5.0 6.0 0.00 0.00 0.00 54 1003.8
20260508234218 67 162 5.0 6.0 0.00 0.00 0.00 52 1003.8
20260508233714 67 173 4.0 6.0 0.00 0.00 0.00 54 1003.8
20260508233209 67 156 4.0 6.0 0.00 0.00 0.00 53 1004.0
20260508232926 66 168 4.0 6.0 0.00 0.00 0.00 56 1004.0
20260508232640 67 165 4.0 6.0 0.00 0.00 0.00 57 1003.7
20260508231904 67 180 3.0 6.0 0.00 0.00 0.00 64 1003.9
20260508231143 65 173 4.0 6.0 0.00 0.00 0.00 66 1003.7
20260508230904 66 191 4.0 6.0 0.00 0.00 0.00 64 1003.6
20260508230135 64 176 4.0 7.0 0.00 0.00 0.00 68 1003.7
20260508225630 61 180 4.0 7.0 0.00 0.00 0.00 73 1003.7
20260508225127 60 194 4.0 7.0 0.00 0.00 0.00 74 1003.6
20260508224621 61 191 5.0 7.0 0.00 0.00 0.00 72 1003.6
20260508224341 60 196 5.0 7.0 0.00 0.00 0.00 74 1003.5